TimeCDT,TemperatureF,Dew PointF,Humidity,Sea Level PressureIn,VisibilityMPH,Wind Direction,Wind SpeedMPH,Gust SpeedMPH,PrecipitationIn,Events,Conditions,WindDirDegrees,DateUTC
12:15 AM,33.4,33.4,100,29.76,2.0,SE,13.8,18.4,0.02,Snow,Light Snow,140,2013-03-18 05:15:00
12:35 AM,33.4,33.4,100,29.72,2.5,SE,20.7,26.5,0.03,Snow,Light Snow,130,2013-03-18 05:35:00
12:55 AM,33.6,33.6,100,29.68,5.0,SE,25.3,29.9,0.04,,Overcast,140,2013-03-18 05:55:00
1:15 AM,33.8,33.8,100,29.68,7.0,SSE,21.9,29.9,N/A,,Overcast,150,2013-03-18 06:15:00
1:35 AM,34.0,33.8,99,29.71,7.0,SSE,15.0,-,N/A,,Overcast,150,2013-03-18 06:35:00
1:55 AM,34.2,33.8,99,29.74,7.0,SSE,8.1,-,N/A,,Overcast,160,2013-03-18 06:55:00
2:15 AM,34.2,33.4,97,29.75,7.0,SSE,6.9,-,N/A,,Overcast,160,2013-03-18 07:15:00
2:35 AM,34.0,33.8,99,29.77,7.0,SW,6.9,-,N/A,Snow,Light Snow,220,2013-03-18 07:35:00
2:55 AM,34.0,33.8,99,29.79,7.0,SW,8.1,-,N/A,,Overcast,220,2013-03-18 07:55:00
3:15 AM,34.2,34.2,100,29.77,3.0,SSW,5.8,-,N/A,,Light Drizzle,210,2013-03-18 08:15:00
3:35 AM,34.3,34.3,100,29.77,3.0,SSW,8.1,-,N/A,,Overcast,210,2013-03-18 08:35:00
3:55 AM,34.7,34.7,100,29.76,3.0,South,4.6,-,N/A,,Overcast,190,2013-03-18 08:55:00
4:15 AM,34.7,34.7,100,29.75,2.0,SSW,9.2,-,N/A,,Overcast,200,2013-03-18 09:15:00
4:35 AM,34.9,34.9,100,29.74,3.0,SSW,8.1,-,N/A,,Overcast,210,2013-03-18 09:35:00
4:55 AM,35.2,35.2,100,29.74,4.0,WSW,8.1,-,N/A,,Overcast,240,2013-03-18 09:55:00
5:15 AM,36.3,36.1,99,29.75,5.0,West,10.4,-,N/A,,Overcast,260,2013-03-18 10:15:00
5:35 AM,36.9,36.1,97,29.76,7.0,WNW,18.4,28.8,N/A,,Overcast,300,2013-03-18 10:35:00
5:55 AM,34.9,29.5,81,29.76,10.0,WNW,16.1,-,N/A,,Scattered Clouds,300,2013-03-18 10:55:00
6:15 AM,34.3,29.3,82,29.77,10.0,NW,13.8,20.7,N/A,,Clear,310,2013-03-18 11:15:00
6:35 AM,33.4,28.9,84,29.78,10.0,NW,16.1,20.7,N/A,,Clear,310,2013-03-18 11:35:00
6:55 AM,32.9,28.2,83,29.79,10.0,NW,17.3,21.9,N/A,,Clear,310,2013-03-18 11:55:00
7:15 AM,32.2,28.2,85,29.80,10.0,NW,13.8,-,N/A,,Clear,310,2013-03-18 12:15:00
7:35 AM,32.0,27.3,83,29.81,10.0,NW,12.7,19.6,N/A,,Clear,320,2013-03-18 12:35:00
7:55 AM,31.3,25.2,78,29.82,10.0,WNW,23.0,31.1,N/A,,Clear,300,2013-03-18 12:55:00
8:15 AM,31.1,20.1,64,29.83,10.0,NW,24.2,29.9,N/A,,Clear,310,2013-03-18 13:15:00
8:35 AM,30.7,21.4,68,29.82,10.0,NW,17.3,-,N/A,,Clear,310,2013-03-18 13:35:00
8:55 AM,31.6,21.0,65,29.83,10.0,WNW,23.0,28.8,N/A,,Clear,300,2013-03-18 13:55:00
9:15 AM,32.0,21.4,65,29.84,10.0,WNW,24.2,28.8,N/A,,Clear,300,2013-03-18 14:15:00
9:35 AM,32.2,21.9,66,29.85,10.0,WNW,21.9,27.6,N/A,,Clear,300,2013-03-18 14:35:00
9:55 AM,32.9,21.2,62,29.85,10.0,WNW,24.2,31.1,N/A,,Clear,290,2013-03-18 14:55:00
10:15 AM,32.7,20.8,62,29.86,10.0,WNW,26.5,38.0,N/A,,Clear,300,2013-03-18 15:15:00
10:35 AM,33.6,21.7,62,29.87,10.0,WNW,31.1,35.7,N/A,,Clear,290,2013-03-18 15:35:00
10:55 AM,33.3,20.1,59,29.89,10.0,WNW,32.2,39.1,N/A,,Clear,290,2013-03-18 15:55:00
11:15 AM,33.8,19.8,56,29.89,10.0,WNW,28.8,36.8,N/A,,Clear,300,2013-03-18 16:15:00
11:35 AM,33.6,20.1,58,29.90,10.0,WNW,27.6,35.7,N/A,,Clear,300,2013-03-18 16:35:00
11:55 AM,33.4,17.8,53,29.90,10.0,WNW,34.5,43.7,N/A,,Clear,290,2013-03-18 16:55:00
12:15 PM,33.1,17.2,52,29.91,10.0,WNW,35.7,43.7,N/A,,Clear,290,2013-03-18 17:15:00
12:35 PM,33.8,17.4,51,29.91,10.0,WNW,31.1,38.0,N/A,,Clear,300,2013-03-18 17:35:00
12:55 PM,34.2,18.0,52,29.92,10.0,NW,29.9,36.8,N/A,,Clear,310,2013-03-18 17:55:00
1:15 PM,34.7,16.5,48,29.92,10.0,WNW,27.6,39.1,N/A,,Clear,300,2013-03-18 18:15:00
1:35 PM,34.9,16.9,48,29.92,10.0,WNW,31.1,42.6,N/A,,Clear,300,2013-03-18 18:35:00
1:55 PM,35.2,17.6,49,29.92,10.0,WNW,27.6,35.7,N/A,,Clear,300,2013-03-18 18:55:00
2:15 PM,36.3,18.1,48,29.93,10.0,WNW,25.3,38.0,N/A,,Scattered Clouds,300,2013-03-18 19:15:00
2:35 PM,34.3,15.8,47,29.93,10.0,WNW,27.6,36.8,N/A,,Scattered Clouds,290,2013-03-18 19:35:00
2:55 PM,36.7,17.2,45,29.93,10.0,NW,28.8,32.2,N/A,,Scattered Clouds,310,2013-03-18 19:55:00
3:15 PM,36.7,16.2,43,29.93,10.0,WNW,26.5,34.5,N/A,,Scattered Clouds,300,2013-03-18 20:15:00
3:35 PM,36.9,17.4,45,29.93,10.0,WNW,26.5,36.8,N/A,,Scattered Clouds,300,2013-03-18 20:35:00
3:55 PM,36.9,17.1,45,29.94,10.0,WNW,24.2,33.4,N/A,,Clear,300,2013-03-18 20:55:00
4:15 PM,36.5,16.7,45,29.94,10.0,WNW,27.6,35.7,N/A,,Clear,300,2013-03-18 21:15:00
4:35 PM,36.7,16.0,43,29.95,10.0,NW,24.2,29.9,N/A,,Clear,310,2013-03-18 21:35:00
4:55 PM,37.0,15.8,42,29.96,10.0,WNW,28.8,34.5,N/A,,Clear,290,2013-03-18 21:55:00
5:15 PM,36.9,15.1,41,29.96,10.0,NW,23.0,32.2,N/A,,Clear,310,2013-03-18 22:15:00
5:35 PM,36.7,14.7,41,29.96,10.0,NW,24.2,31.1,N/A,,Clear,310,2013-03-18 22:35:00
5:55 PM,36.7,15.4,42,29.96,10.0,WNW,20.7,25.3,N/A,,Clear,290,2013-03-18 22:55:00
6:15 PM,36.5,15.1,42,29.97,10.0,WNW,24.2,28.8,N/A,,Clear,300,2013-03-18 23:15:00
6:35 PM,35.8,15.3,43,29.97,10.0,NW,23.0,26.5,N/A,,Clear,310,2013-03-18 23:35:00
6:55 PM,34.9,15.4,45,29.98,10.0,NW,21.9,25.3,N/A,,Clear,310,2013-03-18 23:55:00
7:15 PM,34.2,15.3,46,29.99,10.0,WNW,15.0,24.2,N/A,,Clear,300,2013-03-19 00:15:00
7:35 PM,32.9,17.4,53,29.99,10.0,NW,13.8,-,N/A,,Clear,310,2013-03-19 00:35:00
7:55 PM,32.0,17.4,55,29.99,10.0,WNW,15.0,-,N/A,,Clear,300,2013-03-19 00:55:00
8:15 PM,31.6,17.8,57,30.01,10.0,WNW,10.4,-,N/A,,Clear,300,2013-03-19 01:15:00
8:35 PM,30.2,19.4,64,30.01,10.0,WNW,8.1,-,N/A,,Clear,290,2013-03-19 01:35:00
8:55 PM,29.8,18.3,62,30.01,10.0,WNW,9.2,-,N/A,,Clear,300,2013-03-19 01:55:00
9:15 PM,28.0,19.8,71,30.01,10.0,NW,8.1,-,N/A,,Clear,310,2013-03-19 02:15:00
9:35 PM,26.6,18.9,73,30.01,10.0,NW,5.8,-,N/A,,Clear,310,2013-03-19 02:35:00
9:55 PM,26.1,18.5,73,30.01,10.0,NW,4.6,-,N/A,,Clear,320,2013-03-19 02:55:00
10:15 PM,26.4,20.8,79,30.02,10.0,West,5.8,-,N/A,,Clear,270,2013-03-19 03:15:00
10:55 PM,26.6,20.1,77,30.04,10.0,West,5.8,-,N/A,,Clear,280,2013-03-19 03:55:00
11:15 PM,27.0,20.7,77,30.04,10.0,West,5.8,-,N/A,,Clear,270,2013-03-19 04:15:00
11:35 PM,27.7,20.8,75,30.04,10.0,West,6.9,-,N/A,,Clear,270,2013-03-19 04:35:00
11:55 PM,28.4,20.8,73,30.05,10.0,West,8.1,-,N/A,,Clear,270,2013-03-19 04:55:00